Вернуться в каталог

FENGYUN 1C DEB

АктивенPO
NORAD 36696·DEBRIS·🇨🇳 China

Запущен May 10, 1999 с Taiyuan Satellite Launch Center

Loading…

Ближайшие Пролёты (ближайшие 24 часа)

TLE

УстаревающийSource: Space-Track

Эпоха: Sep 7, 2026, 00:44 UTC

1 36696U 99025DZS 26250.03095149  .00002470  00000-0  76517-3 0  9993
2 36696  98.9836 277.5546 0021462 251.0561 108.8301 14.42014969682597

Отслеживайте FENGYUN 1C DEB в реальном времени с AllMySat

Download on the App Store